STARLINK-31751, 59574

Orbit data source: Space-Track

STARLINK-31751, 59574 is a payload satellite owned by SpaceX/Seattle (US) in LEO that was launched on Tue, 23 Apr 2024 UTC via an FALCON 9 launch vehicle from the Air Force Eastern Test Range (AFETR). Payload-class satellites include a variety of spacecraft equipped with specific instruments for various scientific and technological missions. These include communications satellites like Starlink; space stations such as the ISS; scientific satellites like the Hubble; Earth observation satellites from companies like Planet Labs, Umbra, and HawkEye 360; GPS; miniature CubeSats for education and research; and military/defense satellites.

Loading next visibility...
Identifier
59574, 2024-076L
Orbit
LEO
Country
Flag of USUS
Related business
Manufacturer
SpaceX/Seattle
Mission
Operational Commercial Communications
Bus & Motor
STARLINK V2M, Unknown motor
Mass
730 kg wet, ~700 kg dry
Launch date (UTC)
2024-04-23 (2 years ago)
Launch vehicle
FALCON 9
Launch site
Air Force Eastern Test Range (AFETR)
Object type
Payload
Rocket body
Debris
Shape & HBR
Box + 2 Pan, 17.7 m
Radar Cross Section
33.884 m², Large (>1 m²)

Expand to show TLE details & history
Last TLE update: 1 day ago

TLE from 1 day ago
0 STARLINK-31751
1 59574U 24076L   25306.28193027  .00002060  00000-0  84356-4 0  9995
2 59574  43.0027   8.8613 0001414 274.6973  85.3717 15.27584395 87018
Epoch: 2025-11-02T06:45Z
TLE epoch observation values (Epoch: 2025-11-02T06:45:58.775Z)
Latitude
-0.00002°
Longitude
-134.43352°
Altitude
482.734 km
Speed
7.626 km/s
True Right ascension
00h 35m 26s
True Declination
0° 00' 00"
Sunlit
Object was in full shadow at epoch
Visualization orbit readout
Latitude
Unknown
Longitude
Unknown
Altitude
Unknown
Speed
Unknown
Apparent Right ascension
Unknown
Apparent Declination
Unknown
Sunlit
N/A
Visualization observer readout
Local Sidereal Time
03:38:58
Azimuth
Unknown
Elevation
Unknown
Doppler factor
Unknown
Orbital elements
Apogee altitude
485.951 km
Perigee altitude
484.01 km
Semi-major axis
6,863.118 km
Eccentricity
0.00014
Inclination
43.0027°
RAAN
8.8613°
Arg. of periapsis
274.6973°
True anomaly
85.38785°
Mean anomaly
85.3717°
Eccentric anomaly
85.37978°
Mean motion
3.81734 °/min
Orbital period
94.31 mins
BSTAR
0.000084356
Loading maneuver chart data...
Computing Atmospheric mass density...
Loading historical data...
Loading historical data...
Loading historical data...
Loading historical data...
Loading historical data...
Loading historical data...
Loading historical data...

Documentation

Showing up to 5 results
|